Location: Brivio
(45.7333°N, 9.4500°E)
Time: 01:31:07
(UTC+00:00)

N. Korean satellite - Pass Details

Date: 15 December 2019
Orbit: 454 x 507 km, 97.2° (Epoch: 23 January)

Event Time Altitude Azimuth Distance (km) Brightness Sun altitude
Rises 16:36:38 0° 177° (S) 2,595 10.5 -9.8°
Reaches altitude 10° 16:38:45 10° 182° (S) 1,712 9.7 -10.1°
Maximum altitude 16:42:23 54° 260° (W) 619 7.5 -10.7°
Drops below altitude 10° 16:45:59 10° 339° (NNW) 1,706 9.3 -11.3°
Sets 16:48:06 0° 344° (NNW) 2,586 10.2 -11.6°
